User: anonymous   Login
Location: Unspecified
(0.0000°N, 0.0000°E)
Time: 07:15:58
(UTC+00:00)
Language:

UWE-1 - Orbit

View from above orbital plane
View from above orbital plane
View from above satellite
View from above satellite

Ground track
Ground track

The orbit data is extracted from the following two-line orbital elements,

1 28892U 05043C   17178.88070502 +.00000121 +00000-0 +32051-4 0  9994
2 28892 097.8714 339.2230 0017761 108.3493 251.9644 14.63348124621904
Epoch (UTC): 27 June 2017 21:08:12
Eccentricity: 0.0017761
inclination: 97.8714°
perigee height: 670 km
apogee height: 695 km
right ascension of ascending node: 339.2230°
argument of perigee: 108.3493°
revolutions per day: 14.63348124
mean anomaly at epoch: 251.9644°
orbit number at epoch: 62190

The dashed part of the orbit path shows where the satellite is in the earth's shadow,  

DLR